Location: Barcelona
(41.3829°N, 2.1774°E)
Time: 03:34:59
(UTC+00:00)

ISS - Pass Details

Date: 25 February 2026
Orbit: 417 x 426 km, 51.6° (Epoch: 16 March)

Event Time Altitude Azimuth Distance (km) Brightness Sun altitude
Exits shadow 04:46:38 14° 355° (N) 1,266 -1.3 -20.5°
Maximum altitude 04:47:04 15° 4° (N) 1,253 -1.3 -20.5°
Drops below altitude 10° 04:49:02 10° 40° (NE) 1,499 -0.3 -20.1°
Sets 04:51:51 0° 66° (ENE) 2,361 1.4 -19.6°
